ASTRA 5B (EGNOS/PRN 123)

Last updated on Sat Sep 13 2025 00:03:27 GMT+0000 (Coordinated Universal Time)

1 39617U 14011B 25255.59177896 .00000131 00000+0 00000+0 0 9997 2 39617 0.1000 296.1220 0003266 256.4067 35.8519 1.00268871 41883
UTC large
Height (km)
Speed (km/s)
/
Latitude / Longitude
Inclination (degrees)
Orbital Period (minutes)
Azimuth
Elevation
Range (km)
Doppler Factor

Next 0 passes for location: London (51.5072 / 0.1276)

Sorry there are no passes over London.